Location: Brad
(46.1333°N, 22.7833°E)
Time: 04:57:39
(UTC+00:00)

Cosmos 1709 Rocket - Pass Details

Date: 03 February 2023
Orbit: 948 x 1001 km, 82.9° (Epoch: 29 March)

Event Time Altitude Azimuth Distance (km) Brightness Sun altitude
Rises 17:47:37 0° 353° (N) 3,658 7.1 -22.9°
Reaches altitude 10° 17:50:10 10° 357° (N) 2,701 6.3 -23.4°
Maximum altitude 17:56:18 65° 79° (E) 1,043 3.8 -24.4°
Enters shadow 17:58:17 43° 143° (SE) 1,319 4.4 -24.8°
